ATLAS 5 CENTAUR DEB, 49352

Orbit data source: Space-Track

ATLAS 5 CENTAUR DEB, 49352 is space debris in HEO originally from a launch on Wed, 17 Oct 2018 UTC launched from the Air Force Eastern Test Range (AFETR). Debris objects in space refer to the collection of defunct objects orbiting the Earth. Examples of debris include non-operational satellites, rocket bodies, and fragments generated from explosions, collisions, or faulty payload assembly.

Not visible in the next 10 days
Identifier
49352, 2018-079FD
Orbit
HEO
Country
Flag of USUS
Related business
Flag of USUnited Launch Alliance/Lockheed Martin (US)
Manufacturer
ULA Decatur
Mission
Spacecraft
Bus & Motor
Unknown
Mass
Unknown
Launch date (UTC)
2018-10-17 (8 years ago)
Launch vehicle
Unknown
Launch site
Air Force Eastern Test Range (AFETR)
Object type
Payload
Rocket body
Debris
Shape & HBR
Unknown shape, 1.1 m
Radar Cross Section
Medium (>0.1 m² and <1 m²)

Expand to show TLE details & history
Last TLE update: 1 week ago

TLE from 1 week ago
0 ATLAS 5 CENTAUR DEB
1 49352U 18079FD  26166.89551003 -.00000121  00000-0  00000+0 0  9994
2 49352  12.4647  79.3131 4580647 227.3437  83.5599  1.68332303 29497
Epoch: 2026-06-15T21:29Z
TLE epoch observation values (Epoch: 2026-06-15T21:29:32.066Z)
Latitude
0.00003°
Longitude
-147.32045°
Altitude
27,853.336 km
Speed
3.152 km/s
True Right ascension
05h 16m 57s
True Declination
0° 00' 00"
Sunlit
Object was in daylight at epoch
Visualization orbit readout
Latitude
Unknown
Longitude
Unknown
Altitude
Unknown
Speed
Unknown
Apparent Right ascension
Unknown
Apparent Declination
Unknown
Sunlit
N/A
Visualization observer readout
Local Sidereal Time
21:34:50
Azimuth
Unknown
Elevation
Unknown
Doppler factor
Unknown
Orbital elements
Apogee altitude
37,149.225 km
Perigee altitude
9,800.167 km
Semi-major axis
29,852.833 km
Eccentricity
0.45806
Inclination
12.4647°
RAAN
79.3131°
Arg. of periapsis
227.3437°
True anomaly
132.57293°
Mean anomaly
83.5599°
Eccentric anomaly
108.45531°
Mean motion
0.42079 °/min
Orbital period
855.53 mins
BSTAR
0
Loading maneuver chart data...
Computing Atmospheric mass density...

Documentation

Showing up to 5 results
|